Airfield :
LOGIN :

Register | Disclaimer

   EN    FR    IT 

 










Legend :    VFR   Marginal VFR   IFR   Intensive IFR   Very Intensive IFR
Visi :
Ceiling :
>= 8 km
>= 3000ft
5 to 8 km
1000 to 3000 ft
1500m to 5 km
500 to 1000 ft
800 to 1500m
200 to 500 ft
< 800m
< 200 ft
Symbols :   Thunderstorms  Fog  Heavy snow  Heavy precipitations  Wind > 20 kt
SIGMETs :     Misc.  Thunderstorms  Icing  Turbulence  Mountain Waves  Volcanic Ashes







- Airport Elevation : 1249 ft


ETSN - Neuburg AB

CURRENT METAR :
  • 171720Z 33002KT 9999 MIFG SCT280 13/11 Q1020 BLU+BLU+

EXPIRED METARs :
  • 171620Z 36002KT 9999 FEW200 SCT280 16/12 Q1020 BLU+BLU+
  • 171520Z 35003KT 9999 SCT280 18/12 Q1021 BLU+BLU+

TAF TAF ETSN
Valid from the 17 at 17:00 until the 18 at 02:00 UTC


171617Z 1717/1802 VRB03KT 9999 NSW FEW280
BECMG 1718/1720 VRB02KT 2000 MIFG BKN250
TEMPO 1720/1721 00000KT 1500 BCFG SCT250
BECMG 1721/1722 00000KT 0400 FG VV001 BY ETGL
No reported NOTAMs for that airfield.



MET'MAP, your aeronautical weather chart ! - Copyright ORBIFLY December 2007 - Disclaimer

ORBIFLY MET'MAP TEAM :

Programming & Development : Alexandra Zaïnal
Concept & Development : Baudouin d'Aumeries
Co-Development & Prog : Marc-Olivier Méhu
Technical & hardware support : Manuel Goepfert

Contact : metmap@orbifly.com




SOURCES & CREDITS :

   NOAA